Fairchild Air Force Base, WA

5:09 PM PST on February 10, 2016 (GMT -0800)
Fairchild Air Force Base

Weather History for KSKA - January, 2013

Change the Weather History Date:

Thursday, January 24, 2013

  Actual Average Record
Temperature  
Mean Temperature 26 °F -  
Max Temperature 30 °F 33 °F 50 °F (2005)
Min Temperature 21 °F 23 °F 6 °F (2008)
Degree Days  
Heating Degree Days 40    
Moisture  
Dew Point 25 °F    
Average Humidity 100    
Maximum Humidity 100    
Minimum Humidity 100    
Precipitation  
Precipitation 0.00 in - - ()
Snow  
Snow 0.00 in - - ()
Snow Depth 3.00 in    
Sea Level Pressure  
Sea Level Pressure 30.17 in    
Wind  
Wind Speed 5 mph (ENE)    
Max Wind Speed 12 mph    
Max Gust Speed -    
Visibility 5 miles    
Events Fog , Rain , Snow    
Averages and records for this station are not official NWS values.
T = Trace of Precipitation, MM = Missing Value Source: NWS Daily Summary

Daily Weather History Graph

Daily Weather History Graph

Search for Another Location

Airport or City:

Trip Planner

Search our weather history database for the weather conditions in past years. The results will help you decide how hot, cold, wet, or windy it might be!

Date:

Astronomy

Jan. 24, 2013 Rise Set
Actual Time 7:26 AM PST 4:40 PM PST
Civil Twilight 6:52 AM PST 5:13 PM PST
Nautical Twilight 6:14 AM PST 5:51 PM PST
Astronomical Twilight 5:38 AM PST 6:27 PM PST
Moon 2:44 PM PST (1/24) 5:29 AM PST (1/24)
Length of Visible Light 10h 21m
Length of Day
9h 13m
Waxing Gibbous, 95% of the Moon is Illuminated
Jan 24
Waxing Gibbous
Jan 26
Full
Feb 3
Last Quarter
Feb 9
New
Feb 17
First Quarter

Hourly Weather History & Observations

Time (PST) Temp. Windchill Dew Point Humidity Pressure Visibility Wind Dir Wind Speed Gust Speed Precip Events Conditions
12:18 AM 21.2 °F 13.6 °F 21.2 °F 100% 30.04 in 9.0 mi SW 5.8 mph - N/A   Overcast
12:33 AM 21.2 °F 11.7 °F 21.2 °F 100% 30.03 in 9.0 mi South 8.1 mph - N/A Snow Light Snow
12:44 AM 21.2 °F 9.5 °F 21.2 °F 100% 30.04 in 9.0 mi SW 11.5 mph - N/A   Overcast
12:58 AM 21.9 °F 15.7 °F 21.9 °F 100% 30.15 in 9.0 mi WSW 4.6 mph - 0.00 in   Overcast
1:13 AM 21.2 °F 14.9 °F 21.2 °F 100% 30.06 in 8.0 mi SW 4.6 mph - N/A   Overcast
1:30 AM 21.2 °F 11.7 °F 21.2 °F 100% 30.06 in 8.0 mi SSW 8.1 mph - N/A Snow Light Snow
1:35 AM 21.2 °F 13.6 °F 21.2 °F 100% 30.07 in 8.0 mi SSW 5.8 mph - N/A Snow Light Snow
1:47 AM 21.2 °F 13.6 °F 21.2 °F 100% 30.08 in 8.0 mi South 5.8 mph - N/A   Overcast
1:58 AM 21.9 °F 15.7 °F 21.9 °F 100% 30.18 in 8.0 mi South 4.6 mph - 0.00 in   Overcast
2:01 AM 21.2 °F 12.6 °F 21.2 °F 100% 30.08 in 8.0 mi South 6.9 mph - N/A Snow Light Snow
2:16 AM 21.2 °F 11.7 °F 21.2 °F 100% 30.08 in 8.0 mi South 8.1 mph - N/A Snow Light Snow
2:19 AM 21.2 °F 12.6 °F 21.2 °F 100% 30.08 in 7.0 mi South 6.9 mph - N/A   Overcast
2:49 AM 21.2 °F 13.6 °F 21.2 °F 100% 30.09 in 6.0 mi South 5.8 mph - N/A   Overcast
2:58 AM 21.6 °F - 21.6 °F 100% 30.19 in 6.0 mi Calm Calm - 0.00 in   Overcast
3:34 AM 21.2 °F 16.4 °F 21.2 °F 100% 30.10 in 6.0 mi WSW 3.5 mph - N/A Snow Light Snow
3:44 AM 21.2 °F - 21.2 °F 100% 30.11 in 6.0 mi SSW 2.3 mph - N/A   Overcast
3:58 AM 21.7 °F - 21.7 °F 100% 30.21 in 6.0 mi South 2.3 mph - 0.00 in   Overcast
3:59 AM 21.2 °F - 21.2 °F 100% 30.11 in 6.0 mi SE 1.2 mph - N/A Snow Light Snow
4:00 AM 21.2 °F - 21.2 °F 100% 30.11 in 6.0 mi Calm Calm - N/A   Overcast
4:02 AM 21.2 °F - 21.2 °F 100% 30.12 in 6.0 mi East 1.2 mph - N/A Snow Light Snow
4:08 AM 21.2 °F - 21.2 °F 100% 30.12 in 6.0 mi SE 2.3 mph - N/A   Overcast
4:18 AM 21.2 °F - 21.2 °F 100% 30.12 in 6.0 mi South 2.3 mph - N/A   Light Freezing Drizzle
4:38 AM 21.2 °F 14.9 °F 21.2 °F 100% 30.13 in 6.0 mi SW 4.6 mph - N/A   Overcast
4:39 AM 21.2 °F 16.4 °F 21.2 °F 100% 30.13 in 5.0 mi SW 3.5 mph - N/A Snow Light Snow
4:50 AM 21.2 °F 16.4 °F 21.2 °F 100% 30.12 in 5.0 mi SSW 3.5 mph - N/A   Overcast
4:51 AM 21.2 °F - 21.2 °F 100% 30.12 in 5.0 mi SSW 2.3 mph - N/A   Light Freezing Drizzle
4:58 AM 21.7 °F 17.0 °F 21.7 °F 100% 30.22 in 5.0 mi SSW 3.5 mph - 0.00 in   Light Freezing Drizzle
4:59 AM 21.2 °F 16.4 °F 21.2 °F 100% 30.12 in 5.0 mi South 3.5 mph - N/A Snow Light Snow
5:06 AM 21.2 °F 16.4 °F 21.2 °F 100% 30.13 in 5.0 mi South 3.5 mph - N/A   Overcast
5:07 AM 21.2 °F 16.4 °F 21.2 °F 100% 30.13 in 5.0 mi South 3.5 mph - N/A   Overcast
5:27 AM 21.2 °F - 21.2 °F 100% 30.14 in 5.0 mi Calm Calm - N/A   Light Freezing Drizzle
5:36 AM 21.2 °F - 21.2 °F 100% 30.15 in 4.0 mi ESE 1.2 mph - N/A   Overcast
5:42 AM 21.2 °F - 21.2 °F 100% 30.14 in 4.0 mi South 2.3 mph - N/A   Overcast
5:58 AM 21.9 °F - 21.9 °F 100% 30.25 in 4.0 mi Calm Calm - 0.00 in   Overcast
6:08 AM 21.2 °F 16.4 °F 21.2 °F 100% 30.15 in 2.5 mi SE 3.5 mph - N/A   Overcast
6:13 AM 21.2 °F 16.4 °F 21.2 °F 100% 30.16 in 1.8 mi SE 3.5 mph - N/A   Overcast
6:18 AM 21.2 °F 14.9 °F 21.2 °F 100% 30.16 in 1.5 mi SE 4.6 mph - N/A   Overcast
6:23 AM 21.2 °F 14.9 °F 21.2 °F 100% 30.16 in 1.8 mi SSE 4.6 mph - N/A   Overcast
6:28 AM 21.2 °F 16.4 °F 21.2 °F 100% 30.16 in 2.0 mi SSE 3.5 mph - N/A   Overcast
6:36 AM 23.0 °F - 23.0 °F 100% 30.16 in 2.0 mi ESE 1.2 mph - N/A   Overcast
6:41 AM 23.0 °F - 23.0 °F 100% 30.16 in 1.5 mi East 1.2 mph - N/A   Overcast
6:51 AM 21.2 °F - 21.2 °F 100% 30.16 in 1.2 mi Calm Calm - N/A   Overcast
6:58 AM 22.1 °F - 22.1 °F 100% 30.26 in 1.2 mi ENE 2.3 mph - 0.00 in   Overcast
7:03 AM 23.0 °F - 23.0 °F 100% 30.16 in 1.2 mi East 2.3 mph - N/A   Overcast
7:08 AM 23.0 °F - 23.0 °F 100% 30.16 in 1.0 mi ESE 2.3 mph - N/A   Mist
7:18 AM 23.0 °F - 23.0 °F 100% 30.16 in 1.2 mi East 2.3 mph - N/A   Overcast
7:19 AM 23.0 °F - 23.0 °F 100% 30.16 in 1.2 mi East 2.3 mph - N/A   Overcast
7:43 AM 23.0 °F - 23.0 °F 100% 30.26 in 3.0 mi SE 2.3 mph - N/A   Overcast
7:51 AM 23.0 °F - 23.0 °F 100% 30.18 in 2.5 mi SSE 2.3 mph - N/A   Overcast
7:58 AM 22.6 °F - 22.6 °F 100% 30.27 in 2.0 mi ESE 1.2 mph - 0.00 in   Overcast
8:08 AM 23.0 °F - 23.0 °F 100% 30.18 in 1.8 mi ENE 1.2 mph - N/A   Overcast
8:13 AM 23.0 °F - 23.0 °F 100% 30.18 in 1.2 mi ESE 2.3 mph - N/A   Overcast
8:18 AM 23.0 °F 14.7 °F 23.0 °F 100% 30.19 in 0.8 mi SE 6.9 mph - N/A   Mist
8:23 AM 23.0 °F 15.8 °F 23.0 °F 100% 30.18 in 0.5 mi SSE 5.8 mph - N/A Fog Light Freezing Fog
8:26 AM 23.0 °F 18.4 °F 23.0 °F 100% 30.18 in 0.5 mi SE 3.5 mph - N/A Fog Light Freezing Fog
8:31 AM 23.0 °F 18.4 °F 23.0 °F 100% 30.19 in 0.2 mi SSE 3.5 mph - N/A Fog Light Freezing Fog
8:42 AM 23.0 °F 18.4 °F 23.0 °F 100% 30.18 in 0.2 mi SE 3.5 mph - N/A Fog , Rain Light Freezing Rain
8:55 AM 23.7 °F 17.8 °F 23.7 °F 100% 30.27 in 0.2 mi SSE 4.6 mph - 0.00 in Fog Light Freezing Fog
9:12 AM 24.8 °F 16.9 °F 24.8 °F 100% 30.29 in 0.2 mi SSE 6.9 mph - N/A Fog Light Freezing Fog
9:55 AM 25.3 °F 18.5 °F 25.3 °F 100% 30.30 in 0.5 mi SE 5.8 mph - N/A Fog Light Freezing Fog
9:58 AM 24.8 °F 19.1 °F 24.8 °F 100% 30.20 in 0.5 mi SE 4.6 mph - N/A Fog Light Freezing Fog
10:03 AM 24.8 °F 17.9 °F 24.8 °F 100% 30.21 in 0.8 mi SE 5.8 mph - N/A   Mist
10:04 AM 24.8 °F 19.1 °F 24.8 °F 100% 30.21 in 0.8 mi SE 4.6 mph - N/A   Mist
10:17 AM 24.8 °F 19.1 °F 24.8 °F 100% 30.20 in 0.8 mi ESE 4.6 mph - N/A   Mist
10:18 AM 24.8 °F 19.1 °F 24.8 °F 100% 30.20 in 1.0 mi ESE 4.6 mph - N/A   Mist
10:23 AM 24.8 °F 20.5 °F 24.8 °F 100% 30.20 in 1.2 mi East 3.5 mph - N/A   Overcast
10:28 AM 24.8 °F 20.5 °F 24.8 °F 100% 30.20 in 1.5 mi East 3.5 mph - N/A   Overcast
10:29 AM 24.8 °F 19.1 °F 24.8 °F 100% 30.20 in 1.5 mi East 4.6 mph - N/A   Overcast
10:34 AM 26.6 °F 22.6 °F 26.6 °F 100% 30.20 in 2.0 mi East 3.5 mph - N/A   Overcast
10:39 AM 26.6 °F 20.0 °F 26.6 °F 100% 30.20 in 2.5 mi East 5.8 mph - N/A   Overcast
10:42 AM 26.6 °F 20.0 °F 26.6 °F 100% 30.20 in 2.5 mi East 5.8 mph - N/A   Overcast
10:47 AM 26.6 °F 21.2 °F 26.6 °F 100% 30.20 in 3.0 mi East 4.6 mph - N/A   Overcast
10:52 AM 26.6 °F 20.0 °F 26.6 °F 100% 30.19 in 3.0 mi East 5.8 mph - N/A   Overcast
10:58 AM 26.6 °F 20.0 °F 26.6 °F 100% 30.30 in 2.5 mi East 5.8 mph - 0.00 in   Overcast
11:03 AM 26.6 °F 20.0 °F 26.6 °F 100% 30.20 in 2.0 mi NE 5.8 mph - N/A   Overcast
11:08 AM 26.6 °F 19.1 °F 26.6 °F 100% 30.20 in 1.5 mi NE 6.9 mph - N/A   Overcast
11:13 AM 26.6 °F 20.0 °F 26.6 °F 100% 30.20 in 1.0 mi NE 5.8 mph - N/A   Mist
11:18 AM 26.6 °F 20.0 °F 26.6 °F 100% 30.20 in 0.8 mi NE 5.8 mph - N/A   Mist
11:23 AM 26.6 °F 19.1 °F 26.6 °F 100% 30.20 in 0.5 mi NE 6.9 mph - N/A Fog Light Freezing Fog
11:28 AM 26.6 °F 19.1 °F 26.6 °F 100% 30.20 in 0.5 mi NE 6.9 mph - N/A Fog Light Freezing Fog
11:38 AM 26.6 °F 19.1 °F 26.6 °F 100% 30.19 in 0.5 mi NNE 6.9 mph - N/A Fog Light Freezing Fog
11:48 AM 26.6 °F 18.2 °F 26.6 °F 100% 30.19 in 0.2 mi NE 8.1 mph - N/A Fog Light Freezing Fog
11:58 AM 26.6 °F 18.2 °F 26.6 °F 100% 30.28 in 0.5 mi NE 8.1 mph - 0.00 in Fog Light Freezing Fog
12:03 PM 26.6 °F 18.2 °F 26.6 °F 100% 30.18 in 1.0 mi NNE 8.1 mph - N/A   Mist
12:13 PM 26.6 °F 20.0 °F 26.6 °F 100% 30.18 in 0.8 mi NE 5.8 mph - N/A   Mist
12:18 PM 26.6 °F 20.0 °F 26.6 °F 100% 30.18 in 1.0 mi NNE 5.8 mph - N/A   Mist
12:23 PM 26.6 °F 20.0 °F 26.6 °F 100% 30.18 in 1.2 mi NNE 5.8 mph - N/A   Overcast
12:28 PM 26.6 °F 19.1 °F 26.6 °F 100% 30.18 in 1.5 mi NNE 6.9 mph - N/A   Overcast
12:33 PM 26.6 °F 19.1 °F 26.6 °F 100% 30.18 in 1.2 mi NNE 6.9 mph - N/A   Overcast
12:43 PM 28.4 °F 21.2 °F 28.4 °F 100% 30.18 in 1.0 mi NNE 6.9 mph - N/A   Mist
12:53 PM 28.4 °F 21.2 °F 28.4 °F 100% 30.18 in 1.0 mi NNE 6.9 mph - N/A   Mist
12:55 PM 28.4 °F 21.2 °F 28.4 °F 100% 30.18 in 1.2 mi NNE 6.9 mph - N/A   Overcast
12:58 PM 28.4 °F 21.2 °F 28.4 °F 100% 30.27 in 1.2 mi NNE 6.9 mph - N/A   Overcast
1:03 PM 28.4 °F 20.4 °F 28.4 °F 100% 30.17 in 1.5 mi NNE 8.1 mph - N/A   Overcast
1:13 PM 28.4 °F 21.2 °F 28.4 °F 100% 30.17 in 1.5 mi NE 6.9 mph - N/A   Overcast
1:23 PM 28.4 °F 20.4 °F 28.4 °F 100% 30.16 in 1.8 mi NNE 8.1 mph - N/A   Overcast
1:38 PM 28.4 °F 20.4 °F 28.4 °F 100% 30.16 in 2.0 mi NE 8.1 mph - N/A   Overcast
1:58 PM 28.0 °F 20.8 °F 28.0 °F 100% 30.25 in 2.0 mi NE 6.9 mph - 0.00 in   Overcast
2:13 PM 28.4 °F 22.2 °F 28.4 °F 100% 30.15 in 3.0 mi NE 5.8 mph - N/A   Overcast
2:58 PM 28.6 °F 20.7 °F 28.6 °F 100% 30.26 in 4.0 mi NNE 8.1 mph - N/A   Overcast
3:18 PM 28.4 °F 20.4 °F 28.4 °F 100% 30.17 in 5.0 mi North 8.1 mph - N/A   Overcast
3:28 PM 28.4 °F 20.4 °F 28.4 °F 100% 30.16 in 5.0 mi North 8.1 mph - N/A   Overcast
3:43 PM 28.4 °F 21.2 °F 28.4 °F 100% 30.16 in 5.0 mi North 6.9 mph - N/A   Overcast
3:48 PM 28.4 °F 20.4 °F 28.4 °F 100% 30.16 in 5.0 mi NNE 8.1 mph - N/A   Overcast
3:53 PM 28.4 °F 20.4 °F 28.4 °F 100% 30.16 in 5.0 mi NNE 8.1 mph - N/A   Overcast
3:58 PM 28.4 °F 21.2 °F 28.4 °F 100% 30.26 in 5.0 mi NNE 6.9 mph - N/A   Overcast
4:03 PM 28.4 °F 21.2 °F 28.4 °F 100% 30.16 in 10.0 mi North 6.9 mph - N/A   Overcast
4:18 PM 28.4 °F 21.2 °F 28.4 °F 100% 30.16 in 10.0 mi NNE 6.9 mph - N/A   Overcast
4:28 PM 28.4 °F 20.4 °F 28.4 °F 100% 30.16 in 10.0 mi NNE 8.1 mph - N/A   Overcast
4:46 PM 28.4 °F 22.2 °F 28.4 °F 100% 30.16 in 10.0 mi NNE 5.8 mph - N/A   Overcast
4:58 PM 27.9 °F 19.8 °F 27.9 °F 100% 30.25 in 10.0 mi NNE 8.1 mph - 0.00 in   Overcast
5:23 PM 26.6 °F 19.1 °F 26.6 °F 100% 30.15 in 10.0 mi NNE 6.9 mph - N/A   Overcast
5:58 PM 27.5 °F 19.3 °F 27.5 °F 100% 30.24 in 10.0 mi NNE 8.1 mph - N/A   Overcast
6:58 PM 27.3 °F 19.1 °F 27.3 °F 100% 30.22 in 10.0 mi NNE 8.1 mph - N/A   Mostly Cloudy
7:58 PM 27.7 °F 20.4 °F 27.7 °F 100% 30.23 in 10.0 mi North 6.9 mph - N/A   Overcast
8:05 PM 28.4 °F 23.3 °F 28.4 °F 100% 30.13 in 10.0 mi North 4.6 mph - N/A   Overcast
8:20 PM 28.4 °F 23.3 °F 28.4 °F 100% 30.12 in 10.0 mi North 4.6 mph - N/A   Overcast
8:43 PM 28.4 °F 22.2 °F 28.4 °F 100% 30.11 in 10.0 mi NNE 5.8 mph - N/A   Overcast
8:54 PM 28.4 °F 23.3 °F 28.4 °F 100% 30.11 in 10.0 mi NNE 4.6 mph - N/A   Overcast
8:58 PM 28.2 °F 23.1 °F 28.2 °F 100% 30.21 in 10.0 mi NNE 4.6 mph - 0.00 in   Overcast
9:02 PM 28.4 °F 23.3 °F 28.4 °F 100% 30.11 in 10.0 mi NNE 4.6 mph - N/A   Overcast
9:15 PM 28.4 °F - 28.4 °F 100% 30.12 in 10.0 mi NE 2.3 mph - N/A   Overcast
9:40 PM 28.4 °F 22.2 °F 28.4 °F 100% 30.10 in 10.0 mi NNE 5.8 mph - N/A   Mostly Cloudy
9:58 PM 28.4 °F 21.2 °F 28.4 °F 100% 30.19 in 10.0 mi NNE 6.9 mph - 0.00 in   Mostly Cloudy
9:59 PM 28.4 °F 21.2 °F 28.4 °F 100% 30.11 in 10.0 mi NNE 6.9 mph - N/A Rain Light Freezing Rain
10:04 PM 28.4 °F 23.3 °F 28.4 °F 100% 30.11 in 10.0 mi NNE 4.6 mph - N/A Rain Light Freezing Rain
10:24 PM 28.4 °F 24.6 °F 28.4 °F 100% 30.12 in 10.0 mi NW 3.5 mph - N/A Rain Light Freezing Rain
10:26 PM 28.4 °F 24.6 °F 28.4 °F 100% 30.12 in 10.0 mi NW 3.5 mph - N/A   Overcast
10:31 PM 28.4 °F 23.3 °F 28.4 °F 100% 30.11 in 10.0 mi North 4.6 mph - N/A   Mostly Cloudy
10:36 PM 28.4 °F 22.2 °F 28.4 °F 100% 30.11 in 10.0 mi NNE 5.8 mph - N/A   Mostly Cloudy
10:41 PM 28.4 °F 21.2 °F 28.4 °F 100% 30.11 in 10.0 mi NNE 6.9 mph - N/A Rain Light Freezing Rain
10:55 PM 28.4 °F 22.2 °F 28.4 °F 100% 30.11 in 10.0 mi NNE 5.8 mph - N/A   Partly Cloudy
10:58 PM 28.9 °F 22.8 °F 28.9 °F 100% 30.20 in 10.0 mi NNE 5.8 mph - 0.00 in Rain Light Freezing Rain
11:02 PM 28.4 °F 22.2 °F 28.4 °F 100% 30.11 in 10.0 mi NNE 5.8 mph - N/A Rain Light Freezing Rain
11:27 PM 30.2 °F 23.4 °F 30.2 °F 100% 30.19 in 10.0 mi NE 6.9 mph - N/A Rain Light Freezing Rain
11:58 PM 29.7 °F 22.0 °F 29.7 °F 100% 30.19 in 10.0 mi NE 8.1 mph - 0.00 in Rain Light Freezing Rain